Vorticity
3 3 3 2 3 3 4 5 5 5 5 6 6 7 6 7 9 7 7 7 7 5 6 6 3 5 5 5 5 5 5 5 6 5 4 3 3 5 5 4 3 3 4 6 7 7 7 5 5 5 6 6 7 8 10 10 9 10 10 10 10 10 11 11 11 11 11 10 10 9 9 9 8 8 8 7 7 6 6 7 7 6 6 7 8 8 8 9 9 11 12 12 13 13 14 14 13
3 4 4 4 5 4 6 5 3 5 6 6 5 7 7 7 8 5 3 3 2 1 2 4 5 5 5 5 6 7 6 6 5 4 4 3 4 4 3 4 3 4 5 7 8 8 6 4 5 7 8 9 9 10 10 10 10 11 11 11 11 11 11 11 11 11 11 10 9 8 7 7 6 6 6 6 6 6 5 5 6 6 5 6 6 6 6 6 7 8 9 9 10 10 11 12 11
4 5 5 5 5 5 6 4 5 7 6 7 8 9 7 6 4 1 0 -0 -2 -0 3 4 4 4 6 6 6 6 5 4 2 2 4 2 4 3 1 4 5 6 8 8 9 8 7 5 7 10 11 11 11 11 11 11 10 10 10 10 11 11 11 11 11 10 9 8 8 7 6 6 6 6 5 5 5 5 6 5 5 6 6 5 5 5 6 5 6 6 6 7 7 8 9 9 10
7 7 5 5 5 6 5 6 8 5 6 12 10 5 5 6 2 1 3 3 0 1 4 4 6 6 7 6 4 3 1 2 2 2 4 2 3 4 3 6 7 9 9 9 8 7 5 5 8 12 13 12 11 12 12 11 10 9 9 9 9 9 9 9 8 8 7 6 5 5 5 5 5 4 4 4 4 4 5 5 4 4 5 4 5 5 6 6 5 6 5 5 5 6 7 8 8
8 7 6 5 5 6 6 7 7 4 10 11 6 5 9 8 4 4 2 3 5 5 7 7 8 6 4 3 3 2 1 2 2 2 4 3 4 5 6 7 9 9 8 7 6 5 5 6 8 12 14 13 11 11 10 9 8 8 7 8 7 6 6 6 5 5 4 4 3 4 4 4 4 3 3 3 3 2 2 2 3 3 3 3 3 3 3 4 4 5 5 5 6 5 6 6 6
7 7 7 5 5 6 6 6 7 8 10 7 7 9 6 3 4 6 2 5 8 8 9 7 5 4 3 2 3 3 3 3 3 3 5 5 5 7 7 7 7 7 6 6 6 6 6 7 10 11 13 12 11 10 9 8 7 7 6 6 5 4 4 3 3 3 2 2 2 3 3 4 3 4 3 4 3 3 2 2 2 2 3 3 2 2 2 2 2 3 4 4 5 5 5 5 5
6 7 7 7 6 7 7 7 7 7 7 7 9 2 -6 -3 3 6 6 8 8 7 6 5 4 4 3 3 3 3 4 5 5 4 5 6 6 7 7 6 6 6 6 6 7 8 10 11 11 11 12 11 10 9 8 6 5 6 5 4 4 3 3 2 2 2 2 2 2 2 2 3 3 3 3 4 4 3 4 4 4 4 4 4 3 4 3 3 3 3 3 3 3 3 3 4 4
5 6 6 6 7 7 7 7 7 6 5 4 3 -0 -2 3 5 5 7 7 5 4 4 3 3 4 4 4 5 4 4 5 6 5 5 6 6 6 5 5 6 5 5 6 7 10 13 13 12 12 11 10 8 7 6 5 5 5 4 3 3 2 2 2 2 2 2 2 1 1 1 2 2 2 2 3 3 3 3 3 3 3 3 3 3 3 4 4 4 4 3 3 3 3 3 3 3
6 6 6 6 6 7 7 7 8 7 5 4 3 4 5 5 6 6 5 4 4 3 3 3 2 3 4 3 4 5 4 5 5 5 5 5 5 5 5 4 4 4 3 4 7 10 12 12 11 11 10 9 7 6 5 4 4 4 4 3 3 2 2 2 2 1 1 1 1 1 1 1 1 1 1 2 2 2 1 2 2 2 2 1 2 2 2 3 3 3 3 3 3 3 3 3 3
7 7 7 7 7 8 8 8 8 8 7 6 6 6 6 6 5 5 4 4 5 4 4 4 4 3 3 4 4 4 5 5 3 3 4 5 6 6 5 5 4 4 5 5 6 9 11 11 10 9 9 7 6 5 4 3 3 3 3 3 3 2 2 2 2 2 1 1 1 1 1 0 1 1 1 1 1 1 1 1 1 1 1 1 1 1 1 1 2 2 2 2 3 3 3 3 3
7 7 7 7 7 7 7 7 7 7 7 5 6 6 7 7 5 5 4 3 5 5 4 3 5 4 3 4 5 5 4 3 4 6 7 7 7 7 7 8 8 8 8 9 9 10 11 10 9 8 7 6 4 4 4 3 3 3 3 3 4 3 2 3 3 3 3 2 2 2 2 2 1 1 1 1 1 1 1 0 0 1 0 0 0 0 -0 0 0 1 1 1 2 2 2 2 1
7 7 7 7 7 6 5 5 4 5 6 4 5 6 6 7 6 6 5 4 4 6 6 4 5 6 6 5 6 5 3 7 13 13 10 8 7 7 8 8 10 11 11 12 12 12 11 10 9 8 7 5 3 3 4 3 3 3 3 3 3 3 2 3 4 4 4 4 3 3 3 3 3 3 2 2 2 1 1 1 0 1 0 0 1 0 -0 -0 -0 -0 -0 0 1 1 2 2 -0
8 8 7 8 7 7 6 5 4 5 6 6 8 8 6 7 6 5 5 5 4 4 6 6 6 7 7 6 8 7 6 10 13 11 9 9 8 7 8 8 10 11 11 12 13 14 12 11 9 8 8 6 4 2 3 3 3 2 3 4 4 4 3 2 3 3 4 4 4 4 4 4 4 4 3 3 3 3 2 2 2 1 1 0 1 1 0 0 -0 0 -0 -0 0 0 1 1 -0
8 9 8 7 7 6 6 6 6 6 7 7 8 8 5 5 6 6 5 6 7 7 7 8 8 9 9 10 10 8 9 8 4 6 8 9 10 10 10 11 11 10 9 10 11 13 13 13 11 9 7 6 5 3 3 2 2 2 1 2 3 3 3 2 2 2 3 3 3 3 3 4 4 3 3 3 3 3 3 3 3 2 3 2 2 2 1 1 0 1 1 0 0 0 1 1 -0
8 8 8 8 8 8 8 7 7 6 7 7 6 7 5 6 8 9 8 8 10 11 12 12 11 10 10 10 8 5 9 9 7 9 9 10 12 12 13 14 14 12 10 9 9 9 8 9 11 12 11 8 6 4 3 2 2 2 1 1 1 2 2 2 1 1 1 2 2 2 2 3 3 3 3 3 4 4 3 3 3 3 3 3 3 3 3 2 2 2 1 1 1 0 1 1 1
8 7 7 8 7 9 9 8 8 7 8 7 7 8 8 9 8 9 11 9 10 11 11 10 8 8 7 8 8 8 10 12 13 14 14 14 14 13 14 14 14 14 13 12 11 11 9 7 7 9 12 13 13 11 7 5 4 3 2 1 1 1 2 2 2 2 2 2 2 2 2 2 2 3 3 3 3 4 4 3 3 3 3 3 3 3 3 3 3 4 3 3 2 2 2 2 2
8 8 8 9 8 9 10 9 8 7 9 9 8 8 8 9 8 10 12 9 8 10 9 8 8 9 10 12 13 13 13 13 12 13 13 12 11 12 11 12 12 11 11 11 10 11 12 11 10 8 8 10 12 14 14 13 11 8 6 4 4 4 4 4 4 4 4 3 4 4 3 3 3 3 3 2 2 3 4 4 3 3 3 3 3 2 2 3 3 3 4 3 4 4 3 3 3
9 10 9 9 9 8 8 7 8 7 8 8 7 9 9 10 12 14 13 10 10 11 11 11 12 12 11 11 11 10 9 7 6 5 5 6 6 6 6 7 8 8 7 7 7 7 7 8 10 10 10 10 10 11 12 13 14 14 13 11 10 9 8 8 8 8 7 6 5 6 5 5 4 3 3 4 3 2 2 3 3 3 3 3 3 3 3 2 3 2 3 3 3 4 3 4 4
7 7 7 8 8 8 9 9 10 10 9 10 11 12 12 12 15 13 11 11 10 10 11 11 11 10 8 7 7 6 5 4 5 5 6 7 7 7 7 7 8 8 7 7 7 6 6 6 6 6 7 8 9 9 10 11 12 12 14 14 13 12 11 10 10 9 8 9 8 8 7 6 6 5 4 4 5 4 3 3 3 2 2 3 3 3 3 2 2 2 3 3 3 3 3 3 4
7 8 9 9 8 9 11 10 9 8 9 11 12 11 10 9 9 6 7 10 8 6 9 10 10 11 9 10 10 11 11 10 9 9 9 9 9 9 9 9 10 10 10 9 9 9 8 7 6 6 6 5 6 7 7 8 9 8 9 10 11 12 14 13 12 10 9 9 9 8 8 8 8 8 7 6 6 5 4 4 3 3 2 2 2 2 3 3 3 3 3 3 3 3 3 3 4
8 9 8 8 8 8 8 6 5 6 8 8 8 9 8 6 5 5 7 10 9 8 7 8 10 11 12 13 13 13 12 12 11 11 11 12 12 11 10 10 10 11 11 11 10 10 11 10 10 9 10 9 8 7 6 5 6 6 7 7 8 8 9 12 14 14 13 11 9 8 7 7 7 8 7 6 7 6 6 5 5 4 4 4 3 2 3 3 3 3 3 3 3 4 3 3 3
7 7 7 8 8 7 6 5 7 8 8 9 9 10 11 8 8 9 9 10 11 11 9 8 8 9 9 9 8 8 9 10 10 10 10 10 10 10 10 10 9 9 10 11 11 11 11 11 11 11 11 11 11 11 10 9 8 7 6 6 7 7 6 6 9 12 15 15 14 12 9 8 7 7 7 5 6 7 6 6 6 5 4 5 6 5 4 4 4 3 3 3 3 4 3 3 3
8 8 9 8 8 8 8 10 11 10 10 10 9 10 11 10 10 9 8 8 7 7 7 6 6 6 5 4 4 5 5 6 7 7 6 5 5 5 7 8 8 7 7 8 9 9 10 10 10 11 11 11 12 12 13 13 13 12 10 9 8 8 8 7 6 5 8 12 14 15 15 14 12 10 9 7 7 8 7 6 7 7 5 5 6 7 6 5 6 5 4 4 4 4 4 3 4
9 10 11 10 11 11 11 11 10 10 9 7 7 6 5 5 5 5 4 4 3 3 4 4 5 5 4 3 4 4 3 4 4 4 4 3 4 4 4 5 4 4 5 5 5 6 6 7 8 9 9 9 10 10 11 12 14 14 14 14 12 11 11 11 9 6 6 6 7 10 12 15 17 16 14 11 9 9 8 8 7 7 7 5 5 7 7 5 6 7 6 6 6 6 6 4 4
12 12 11 10 10 10 9 6 6 6 5 2 2 2 1 2 3 4 5 4 4 5 6 6 7 6 6 5 4 4 4 5 6 6 5 5 4 4 4 3 2 3 3 4 5 5 4 4 4 5 6 7 8 9 9 9 10 11 12 13 13 13 12 12 13 11 10 9 8 8 9 12 15 16 16 15 12 11 10 9 9 8 8 7 6 6 7 6 5 6 6 7 7 6 7 7 6
8 8 6 5 6 7 3 0 3 4 1 1 4 4 3 5 5 5 7 8 9 9 8 8 8 7 6 6 5 5 6 6 7 8 8 8 6 5 4 3 4 4 4 4 5 6 6 5 3 2 3 3 4 6 7 8 9 9 9 8 9 10 10 10 12 13 12 12 11 10 10 12 14 14 14 15 14 14 14 11 10 10 9 8 7 7 7 7 7 7 6 6 7 7 7 8 8
5 5 3 3 5 5 2 3 5 5 5 6 7 7 8 9 9 9 10 10 10 10 9 9 9 8 8 8 8 8 9 9 9 9 8 8 7 5 4 4 5 4 4 4 4 5 6 6 5 5 4 3 2 3 4 6 7 8 8 7 7 7 7 8 8 10 11 11 11 8 7 9 12 13 13 14 14 15 16 16 15 13 12 10 9 8 7 7 7 7 7 7 7 8 8 9 9
6 6 5 6 7 6 7 8 8 8 9 10 9 7 10 12 10 10 10 9 9 9 9 9 9 10 10 10 10 10 10 11 10 9 8 6 6 6 5 5 5 5 5 5 5 5 5 5 5 5 6 5 3 2 3 3 4 5 6 7 8 7 7 8 8 9 8 8 8 6 5 6 8 8 10 11 12 12 14 16 17 16 15 14 12 10 9 8 8 8 8 8 8 8 9 9 10
6 6 6 6 7 9 9 9 9 10 10 9 10 8 11 13 10 10 9 8 8 8 9 10 10 10 9 9 8 8 6 6 6 6 6 5 5 5 6 6 6 6 6 5 5 4 4 4 4 5 6 7 6 4 3 3 3 2 3 4 5 6 7 8 6 6 7 7 7 6 3 4 5 6 7 8 8 9 10 12 15 17 17 16 15 14 13 11 10 11 10 9 9 9 10 10 10
7 7 7 7 8 10 10 11 10 11 12 10 11 9 10 12 9 8 8 8 8 8 8 8 7 7 7 7 6 6 5 6 6 5 5 5 6 6 7 6 6 7 7 7 6 5 5 4 3 4 4 6 8 7 6 5 4 3 2 2 3 4 5 6 5 3 5 5 7 7 5 3 3 5 6 6 6 6 8 9 10 12 14 15 15 15 16 16 14 14 14 13 12 12 12 12 11
10 9 10 10 9 9 8 11 10 10 10 8 8 7 7 9 8 7 6 6 5 5 6 5 5 5 5 7 7 7 7 7 6 6 6 7 8 9 10 6 2 4 6 6 6 6 7 7 6 6 5 6 6 7 8 7 5 4 3 3 3 4 3 3 3 3 3 3 4 6 6 6 5 5 5 5 5 5 6 7 6 6 8 10 12 12 13 15 17 17 18 19 19 18 15 14 13
11 10 11 10 8 10 9 10 9 8 8 7 6 5 6 9 7 5 4 3 3 4 5 5 6 7 8 8 8 8 8 8 7 7 7 7 8 9 10 7 2 3 4 4 5 6 7 7 7 8 9 9 8 8 9 8 7 5 4 3 4 5 5 4 3 2 2 2 2 3 4 5 5 5 6 6 5 5 4 5 5 4 5 7 8 9 10 12 14 17 18 19 19 18 17 15 14
10 9 11 10 9 9 8 8 8 6 7 7 6 5 5 5 3 3 5 6 7 6 6 5 6 7 7 7 6 5 6 6 6 7 7 7 7 7 7 7 5 4 5 6 7 8 8 8 8 8 9 10 11 11 12 12 10 6 4 4 4 5 6 6 5 3 2 3 2 2 3 3 3 4 5 5 5 5 5 5 5 4 4 4 5 6 8 9 10 12 13 12 12 13 15 14 14
8 8 8 9 8 5 4 7 7 5 8 7 6 5 2 3 7 9 10 9 9 8 9 9 10 9 8 7 6 6 6 6 6 7 8 8 9 8 7 7 6 5 5 7 7 8 8 9 9 10 10 10 10 11 12 14 14 11 6 3 3 6 7 7 7 6 4 4 3 3 3 2 3 3 3 4 5 5 5 5 5 5 4 2 2 4 4 5 6 8 8 5 4 8 11 11 10
6 7 5 6 6 4 5 7 6 6 9 7 4 5 5 6 9 9 8 8 10 11 10 11 10 9 8 7 7 7 8 8 8 9 10 10 10 9 8 7 7 7 6 6 6 6 7 7 8 8 10 10 10 10 9 10 11 12 10 5 2 3 4 4 5 6 6 6 5 4 4 3 3 3 3 4 4 5 5 5 5 5 5 4 4 4 4 3 2 5 7 3 0 4 7 8 7
7 7 6 5 4 5 7 7 6 6 6 5 3 5 6 6 5 3 4 6 8 6 4 6 5 4 4 4 4 5 6 6 6 8 8 8 7 7 7 6 7 7 8 8 8 7 7 8 8 8 9 9 9 9 8 8 7 8 10 7 3 1 2 2 2 2 3 5 7 6 5 4 4 3 3 3 4 5 5 4 5 6 6 5 5 5 5 3 0 2 6 5 3 2 4 5 7
7 6 5 3 3 6 8 7 6 3 2 3 2 3 2 2 2 3 4 5 5 3 4 5 4 3 4 4 4 4 4 5 5 6 6 5 5 4 4 3 3 4 5 6 7 8 9 9 11 11 11 10 9 9 8 9 8 8 8 8 6 4 2 3 3 3 2 2 4 7 8 5 4 5 4 4 4 5 6 6 4 5 5 5 6 5 4 4 1 1 4 5 5 4 4 3 6
7 5 5 3 4 7 6 5 3 1 2 3 2 2 2 2 3 4 5 6 6 7 8 8 7 7 6 6 6 5 5 5 6 7 6 6 5 6 6 6 7 6 6 5 4 5 5 7 9 11 12 12 11 9 8 8 8 9 9 8 8 6 4 4 5 5 5 3 2 4 7 7 6 4 4 6 6 4 5 7 6 6 7 6 7 7 5 5 3 2 3 4 6 6 5 3 3
6 5 4 4 5 6 4 2 2 2 4 5 3 3 3 4 5 5 5 6 7 8 8 7 8 7 7 6 6 6 7 8 9 9 8 8 8 9 9 10 10 10 9 6 4 3 3 6 8 9 11 13 13 11 8 5 5 6 7 8 8 7 6 5 5 5 6 6 4 3 4 5 6 4 2 4 6 4 4 6 6 8 10 10 9 9 8 6 5 5 4 4 5 7 5 3 3
7 6 4 5 7 7 5 3 4 5 5 5 3 3 5 5 5 6 6 6 8 8 7 7 7 6 4 4 5 7 9 9 9 8 8 8 9 10 10 10 9 6 4 2 3 5 8 11 13 13 11 11 13 14 13 10 6 4 4 6 8 8 7 5 5 5 6 6 5 5 5 4 4 4 5 5 4 3 5 7 5 4 7 9 8 6 7 7 4 0 0 1 2 8 7 -2 -1
7 7 7 8 8 7 5 3 4 6 5 4 4 5 6 6 6 7 6 6 9 8 8 8 6 5 4 6 8 10 10 9 9 9 10 11 11 11 9 7 4 2 1 1 5 9 14 16 17 17 15 12 11 12 14 15 14 11 9 7 6 8 9 8 5 4 5 6 6 5 5 5 5 4 4 7 7 4 5 7 5 3 1 2 3 4 7 10 6 -1 -1 -1 -3 3 6 -5 -4
8 9 10 9 7 7 5 3 4 6 5 5 6 5 4 5 6 6 5 7 8 6 7 7 6 5 6 8 9 9 9 10 11 12 12 10 8 6 5 4 3 4 6 10 14 18 20 20 20 19 18 17 15 13 12 12 13 13 13 13 11 9 8 9 8 7 5 5 6 7 6 5 5 4 1 2 4 5 7 6 4 2 -1 -1 2 5 8 8 7 3 -3 -2 -2 -3 1 -4 -5
9 8 8 8 7 6 5 4 5 6 7 7 5 3 2 3 5 6 6 7 6 7 7 6 6 7 8 10 10 11 12 11 10 9 7 6 6 7 8 8 9 12 17 21 23 23 23 23 23 22 22 21 20 19 18 16 14 13 10 10 12 12 10 8 8 8 7 5 6 6 6 5 5 5 2 -0 -1 1 5 5 4 4 1 -1 -0 2 4 4 7 7 -0 3 4 -1 3 3 -3
8 6 7 8 7 6 5 6 7 5 6 7 5 6 4 2 6 7 5 6 7 8 8 7 8 10 10 11 11 11 12 10 9 8 7 9 10 11 10 11 16 21 24 26 26 27 28 29 29 29 28 26 24 23 22 21 21 21 18 14 12 13 14 12 9 8 6 7 9 8 4 3 4 4 4 2 0 -2 -2 -0 3 6 7 7 8 6 6 6 8 9 9 14 16 13 14 4 -8
6 6 9 8 7 8 6 5 6 4 6 6 5 9 4 -0 7 7 4 9 11 10 10 11 12 10 8 9 10 13 14 12 10 10 11 11 10 10 12 18 24 26 27 28 30 32 34 36 38 39 39 39 37 34 30 27 25 26 27 25 21 18 17 17 15 11 7 6 10 12 12 9 4 2 6 6 4 1 -2 -2 -2 -1 0 2 9 11 10 13 13 14 24 27 21 15 4 -10 -10
6 7 9 9 7 8 6 4 6 5 7 6 3 5 2 -0 6 7 9 14 14 14 14 10 7 4 6 9 12 15 12 8 7 8 10 11 12 16 20 25 26 27 29 32 36 40 45 49 50 50 51 52 53 53 51 48 44 41 40 39 36 30 24 22 21 18 13 8 4 2 7 15 15 10 8 8 5 2 1 2 -1 -2 -2 -4 -0 2 0 2 2 8 21 17 1 -8 -16 -18 -3
7 6 6 8 7 6 6 5 6 5 4 6 4 4 5 4 5 5 6 7 7 9 6 1 1 3 7 11 13 12 7 6 10 12 14 16 19 21 22 24 28 32 38 43 45 46 44 41 37 35 35 34 37 40 43 46 47 48 51 52 53 50 42 33 28 25 21 17 10 1 -5 -1 10 15 14 11 9 3 -1 1 2 1 0 0 2 2 -1 -3 -6 -5 1 -3 -12 -12 -9 -4 4
7 6 5 6 6 8 9 5 5 4 1 5 5 4 7 5 2 3 2 0 2 3 0 -1 3 7 11 13 14 13 11 14 17 17 19 20 20 20 23 28 34 40 43 43 38 30 23 19 18 19 18 18 21 22 23 26 27 29 33 38 47 55 59 54 46 36 29 26 22 16 4 -6 -6 -0 4 8 13 10 4 2 3 4 3 1 1 3 4 4 3 2 -0 -1 -3 -4 -0 6 6
6 6 5 5 5 5 6 5 6 2 -0 7 8 5 7 4 1 5 6 6 7 5 4 6 10 12 13 14 15 15 15 18 19 18 20 21 20 23 29 36 40 40 35 27 18 12 11 12 14 17 18 19 20 20 20 21 21 20 19 19 23 32 46 57 61 56 45 37 32 28 22 12 1 -6 -8 -5 2 8 9 7 7 8 8 6 3 2 5 7 9 12 12 13 13 10 9 10 7
5 5 5 6 5 3 5 7 7 1 -2 6 9 6 8 8 9 10 10 11 9 7 8 10 11 11 10 12 15 16 16 17 17 19 21 21 23 29 36 39 36 29 19 10 6 7 10 13 13 17 18 16 18 20 19 20 21 23 22 19 16 16 21 32 46 57 57 53 46 38 32 27 19 10 2 -3 -5 -3 3 8 10 9 6 5 5 3 4 5 3 2 3 5 10 12 9 5 3
6 7 7 7 5 4 6 5 6 2 -2 3 9 8 6 6 8 9 9 8 8 9 10 10 10 8 11 17 18 18 18 18 20 23 23 23 26 34 36 31 22 13 7 5 7 10 13 14 13 15 15 12 14 17 16 16 18 21 22 21 19 17 15 15 20 30 42 52 56 53 46 38 31 24 17 12 8 4 2 2 5 12 13 8 6 4 3 4 1 -2 -3 -3 -1 -0 -1 -1 1
6 7 7 7 6 6 4 2 4 4 2 4 7 5 2 3 8 10 10 9 10 12 10 10 11 12 20 23 19 21 22 22 25 25 24 26 30 35 31 18 9 5 5 8 11 13 15 13 12 13 12 9 10 11 10 12 16 18 19 19 19 18 17 17 16 14 18 29 44 55 58 54 46 37 28 22 20 18 16 8 -0 2 13 16 14 11 8 5 3 2 1 1 1 2 4 8 10
7 7 7 7 5 5 5 6 6 4 4 5 4 3 4 11 16 13 9 9 10 9 9 13 13 16 22 22 21 25 23 23 26 25 26 28 30 32 22 8 5 5 6 10 12 13 13 11 11 11 9 8 8 8 7 9 14 18 19 18 17 16 17 17 18 17 15 15 21 33 45 53 55 50 42 33 28 24 22 20 10 -2 -3 7 14 17 19 18 13 9 7 7 8 7 6 8 10
7 6 8 7 5 4 8 11 10 8 6 3 3 4 7 16 17 8 4 7 8 9 14 15 12 16 22 22 24 24 21 23 26 26 28 29 29 26 14 4 4 5 7 11 12 13 13 11 10 10 9 9 10 9 7 7 13 18 21 21 16 13 14 15 15 17 17 18 18 21 27 35 44 51 51 46 40 34 27 22 20 11 -1 -4 2 7 14 23 27 27 25 23 20 14 6 1 3
7 7 7 6 6 6 7 8 7 6 4 4 5 2 8 19 11 -0 5 9 9 12 15 12 11 18 23 25 25 23 22 25 27 29 29 27 26 21 8 2 4 6 9 11 11 12 13 12 12 11 10 11 10 9 8 8 12 17 20 23 21 15 12 12 12 12 12 12 15 18 19 22 27 36 43 47 46 45 42 33 25 20 8 -3 -5 -2 -1 4 13 21 25 27 25 23 19 12 8
6 8 6 5 6 5 5 7 6 6 4 8 7 1 12 19 3 0 12 11 10 13 13 14 17 20 25 27 26 24 24 26 29 31 28 24 24 15 3 -0 4 8 11 10 9 8 8 12 15 14 13 12 12 10 9 9 11 16 18 20 21 20 16 14 13 12 9 7 6 7 9 11 14 20 27 36 41 41 44 45 40 34 23 6 -5 -5 -3 -4 -3 1 8 15 17 18 21 22 19
5 8 6 6 6 4 7 8 5 3 4 10 6 -2 11 16 2 9 15 6 10 16 14 18 21 23 29 29 26 25 27 30 33 31 24 19 19 11 1 -0 6 12 13 13 12 10 8 8 11 15 14 12 12 12 12 12 13 15 17 17 18 19 18 18 18 17 15 13 10 8 6 5 6 10 15 23 32 37 39 40 41 41 40 30 12 2 1 1 -2 -5 -5 -0 6 9 12 14 16
6 9 9 7 6 7 10 8 3 2 1 5 3 -4 7 14 8 12 9 3 16 20 15 19 24 29 32 27 25 28 30 32 32 28 22 16 15 10 0 2 12 16 14 13 14 15 17 15 12 15 14 12 13 13 13 15 16 16 16 15 15 17 17 16 16 17 17 17 17 16 15 12 8 7 8 10 18 28 35 39 41 40 41 41 33 20 11 9 8 5 -1 -4 -3 0 4 7 9
Height
5797 5797 5797 5796 5796 5795 5795 5794 5793 5792 5792 5792 5792 5790 5789 5790 5789 5787 5786 5784 5783 5782 5782 5781 5780 5780 5779 5778 5778 5778 5778 5777 5776 5773 5771 5772 5772 5772 5772 5772 5771 5770 5769 5768 5768 5767 5766 5765 5764 5763 5763 5762 5762 5761 5761 5761 5761 5760 5760 5760 5760 5761 5761 5761 5761 5761 5761 5761 5761 5762 5761 5762 5762 5762 5762 5762 5763 5763 5763 5763 5763 5764 5764 5765 5765 5765 5765 5765 5765 5766 5767 5768 5768 5768 5769 5769 5770
5796 5795 5795 5795 5794 5794 5793 5792 5791 5791 5790 5790 5790 5788 5787 5788 5786 5784 5783 5781 5780 5779 5779 5778 5778 5777 5777 5777 5776 5776 5776 5774 5773 5770 5768 5769 5769 5768 5769 5768 5767 5766 5765 5765 5764 5764 5763 5762 5761 5760 5760 5759 5758 5758 5758 5758 5757 5757 5757 5757 5757 5758 5758 5758 5758 5758 5758 5759 5759 5759 5759 5759 5759 5759 5760 5760 5760 5760 5761 5761 5761 5761 5762 5762 5762 5762 5763 5763 5763 5764 5764 5765 5765 5766 5767 5767 5767
5794 5794 5793 5793 5792 5792 5791 5790 5790 5789 5788 5788 5788 5786 5784 5784 5783 5781 5780 5779 5777 5776 5776 5776 5776 5776 5776 5775 5774 5773 5772 5770 5770 5767 5765 5766 5764 5764 5765 5764 5764 5763 5762 5761 5760 5760 5760 5759 5758 5757 5756 5755 5755 5754 5754 5754 5754 5754 5754 5754 5754 5755 5755 5755 5755 5755 5756 5756 5756 5756 5757 5757 5757 5757 5757 5758 5758 5758 5758 5759 5759 5759 5759 5760 5760 5760 5760 5761 5761 5761 5761 5762 5763 5763 5764 5765 5765
5792 5792 5791 5790 5790 5790 5789 5788 5787 5787 5786 5786 5785 5783 5781 5781 5779 5778 5777 5776 5775 5775 5774 5775 5774 5775 5774 5772 5771 5769 5768 5767 5767 5765 5762 5762 5761 5760 5761 5760 5760 5759 5758 5757 5757 5756 5756 5755 5754 5753 5752 5751 5751 5751 5751 5751 5751 5751 5751 5751 5751 5752 5752 5752 5752 5753 5753 5753 5753 5753 5754 5754 5754 5755 5755 5755 5755 5755 5756 5756 5756 5756 5757 5757 5757 5758 5758 5758 5759 5759 5759 5759 5760 5761 5761 5762 5763
5790 5790 5789 5788 5787 5787 5786 5785 5785 5785 5784 5783 5782 5780 5778 5777 5776 5775 5774 5773 5773 5773 5772 5773 5771 5772 5771 5769 5767 5766 5765 5764 5764 5763 5760 5759 5758 5757 5757 5756 5756 5755 5754 5753 5752 5752 5752 5750 5749 5749 5748 5748 5748 5747 5748 5747 5747 5747 5748 5748 5748 5748 5749 5749 5749 5749 5750 5750 5750 5750 5751 5751 5751 5751 5752 5752 5752 5753 5753 5754 5754 5754 5754 5755 5755 5756 5756 5756 5756 5757 5757 5757 5757 5758 5759 5759 5760
5789 5788 5787 5786 5785 5785 5784 5784 5783 5782 5781 5780 5779 5778 5775 5773 5774 5773 5772 5771 5771 5771 5770 5769 5768 5768 5767 5766 5765 5762 5761 5760 5760 5760 5758 5756 5755 5754 5753 5752 5752 5751 5750 5749 5748 5748 5747 5746 5744 5744 5744 5744 5744 5744 5744 5744 5744 5744 5744 5744 5745 5745 5745 5745 5746 5746 5746 5747 5747 5747 5747 5748 5748 5748 5748 5749 5749 5750 5750 5751 5751 5751 5752 5752 5753 5753 5753 5754 5754 5754 5754 5755 5755 5755 5756 5756 5757
5787 5786 5785 5784 5783 5783 5782 5781 5781 5780 5778 5777 5776 5774 5771 5770 5771 5771 5770 5769 5768 5768 5766 5765 5764 5764 5763 5763 5762 5759 5758 5757 5756 5756 5754 5753 5751 5750 5750 5748 5748 5747 5746 5745 5744 5744 5744 5742 5741 5740 5740 5740 5740 5740 5740 5740 5740 5740 5741 5741 5741 5742 5742 5742 5742 5743 5743 5743 5743 5744 5744 5744 5744 5744 5745 5745 5746 5746 5747 5747 5748 5748 5749 5749 5749 5750 5751 5751 5751 5752 5752 5752 5752 5752 5753 5753 5754
5785 5784 5783 5782 5781 5781 5780 5779 5778 5777 5775 5774 5772 5770 5769 5768 5768 5768 5768 5767 5765 5764 5763 5762 5761 5761 5760 5760 5758 5756 5755 5754 5752 5751 5750 5749 5748 5746 5745 5744 5743 5742 5741 5741 5740 5740 5740 5738 5737 5737 5736 5736 5736 5736 5736 5736 5736 5737 5737 5737 5738 5738 5738 5738 5738 5739 5739 5739 5740 5740 5740 5740 5741 5741 5741 5742 5742 5743 5743 5744 5744 5745 5746 5746 5746 5747 5747 5748 5748 5749 5749 5749 5749 5749 5750 5750 5751
5783 5782 5781 5779 5778 5778 5778 5776 5775 5773 5772 5771 5769 5767 5767 5766 5766 5765 5764 5763 5761 5760 5759 5758 5758 5757 5756 5756 5754 5751 5751 5750 5748 5747 5746 5745 5744 5743 5741 5740 5739 5738 5737 5736 5736 5736 5736 5734 5734 5733 5733 5733 5733 5732 5732 5732 5732 5732 5733 5733 5733 5734 5734 5734 5734 5735 5735 5735 5736 5736 5736 5736 5737 5737 5737 5738 5738 5739 5740 5740 5741 5741 5742 5742 5743 5743 5744 5745 5745 5745 5746 5746 5747 5747 5747 5747 5748
5780 5779 5778 5777 5776 5776 5775 5774 5772 5770 5769 5768 5765 5765 5764 5764 5763 5761 5761 5759 5757 5756 5755 5755 5755 5754 5753 5752 5750 5747 5747 5746 5746 5744 5743 5742 5741 5739 5738 5736 5735 5734 5732 5731 5731 5731 5731 5730 5730 5729 5729 5729 5729 5729 5728 5728 5728 5728 5728 5728 5729 5729 5729 5730 5730 5730 5730 5731 5731 5732 5732 5732 5733 5733 5733 5734 5734 5735 5736 5736 5737 5738 5738 5739 5739 5740 5741 5741 5742 5742 5743 5743 5744 5744 5744 5744 5744
5778 5777 5776 5775 5774 5773 5772 5771 5769 5767 5765 5764 5763 5763 5762 5760 5759 5758 5758 5756 5754 5752 5752 5753 5751 5751 5751 5748 5745 5743 5744 5743 5743 5741 5739 5738 5736 5735 5734 5733 5731 5730 5728 5727 5726 5726 5726 5725 5725 5725 5724 5724 5724 5724 5724 5724 5724 5724 5724 5724 5724 5724 5724 5725 5725 5725 5725 5726 5726 5727 5727 5728 5728 5729 5729 5730 5730 5731 5732 5733 5733 5734 5734 5735 5735 5736 5737 5737 5738 5739 5739 5740 5741 5741 5741 5741 5740
5775 5775 5774 5772 5771 5770 5769 5767 5766 5764 5762 5760 5760 5761 5759 5757 5756 5755 5754 5753 5751 5749 5749 5750 5749 5748 5746 5745 5742 5738 5741 5743 5739 5736 5734 5733 5732 5731 5730 5729 5727 5726 5724 5723 5722 5721 5721 5721 5720 5720 5719 5719 5719 5719 5719 5719 5719 5719 5719 5719 5719 5719 5719 5720 5720 5720 5720 5721 5721 5721 5722 5723 5723 5724 5724 5725 5726 5726 5727 5728 5729 5730 5730 5731 5731 5732 5732 5733 5734 5735 5735 5736 5737 5737 5738 5738 5737
5773 5772 5771 5770 5768 5767 5766 5764 5763 5762 5758 5758 5758 5757 5755 5753 5752 5752 5751 5749 5748 5746 5746 5747 5746 5745 5742 5742 5740 5734 5738 5740 5735 5732 5731 5730 5729 5728 5726 5725 5723 5722 5721 5719 5719 5718 5718 5717 5716 5715 5715 5714 5714 5714 5714 5714 5714 5714 5714 5714 5714 5714 5714 5715 5715 5715 5715 5715 5716 5716 5717 5717 5718 5718 5719 5720 5721 5721 5722 5723 5724 5725 5726 5726 5727 5728 5728 5729 5729 5730 5731 5732 5733 5734 5734 5734 5734
5770 5769 5768 5767 5765 5764 5763 5761 5760 5759 5756 5756 5756 5753 5752 5750 5750 5749 5748 5746 5744 5743 5743 5743 5742 5740 5738 5738 5737 5733 5734 5733 5730 5729 5729 5727 5726 5724 5722 5721 5719 5718 5717 5715 5714 5714 5714 5714 5713 5712 5712 5711 5710 5710 5709 5709 5709 5709 5709 5709 5710 5710 5709 5710 5710 5710 5710 5710 5710 5711 5711 5712 5712 5713 5713 5714 5715 5716 5717 5718 5719 5720 5721 5721 5722 5723 5723 5724 5725 5725 5726 5727 5728 5729 5730 5730 5730
5768 5767 5766 5764 5763 5762 5761 5759 5758 5756 5754 5755 5753 5750 5749 5748 5748 5745 5745 5743 5740 5740 5740 5739 5738 5736 5735 5734 5733 5732 5730 5728 5727 5726 5724 5723 5721 5720 5718 5717 5715 5714 5712 5711 5710 5709 5709 5709 5709 5709 5708 5707 5707 5706 5705 5705 5705 5705 5705 5705 5705 5705 5704 5704 5704 5704 5705 5704 5705 5705 5705 5706 5707 5707 5707 5708 5709 5710 5711 5712 5713 5714 5715 5715 5717 5717 5718 5719 5719 5720 5721 5722 5723 5724 5725 5726 5726
5766 5765 5764 5763 5762 5760 5759 5758 5756 5754 5751 5751 5750 5748 5748 5746 5746 5742 5741 5740 5737 5737 5737 5734 5734 5733 5732 5730 5729 5728 5726 5725 5724 5721 5720 5719 5717 5715 5714 5712 5711 5710 5708 5707 5706 5705 5704 5703 5703 5703 5702 5702 5702 5701 5701 5701 5700 5700 5700 5700 5700 5700 5699 5699 5699 5699 5699 5699 5698 5699 5699 5700 5700 5701 5701 5702 5703 5704 5704 5706 5707 5708 5709 5709 5711 5711 5712 5713 5714 5715 5716 5717 5717 5718 5720 5721 5721
5765 5763 5762 5761 5760 5758 5757 5756 5754 5752 5749 5748 5747 5747 5746 5744 5743 5741 5738 5737 5735 5734 5732 5730 5730 5729 5728 5727 5725 5724 5722 5721 5719 5718 5716 5714 5713 5711 5709 5708 5707 5705 5704 5702 5701 5700 5699 5698 5698 5697 5697 5696 5696 5696 5695 5695 5694 5694 5694 5694 5693 5693 5693 5693 5693 5693 5693 5692 5692 5692 5693 5693 5694 5694 5695 5696 5697 5697 5698 5699 5700 5701 5702 5703 5704 5705 5706 5707 5708 5709 5710 5711 5711 5713 5714 5715 5716
5763 5762 5760 5759 5757 5756 5754 5753 5751 5749 5748 5746 5745 5744 5743 5742 5741 5739 5735 5735 5733 5730 5728 5727 5727 5725 5724 5723 5721 5720 5719 5717 5715 5714 5712 5710 5708 5707 5705 5704 5702 5701 5699 5697 5696 5695 5694 5694 5693 5692 5691 5690 5690 5690 5689 5689 5688 5688 5687 5687 5687 5687 5686 5686 5686 5686 5686 5686 5686 5686 5686 5687 5687 5688 5688 5689 5690 5691 5692 5692 5693 5695 5696 5697 5697 5698 5699 5700 5701 5702 5703 5704 5705 5706 5708 5709 5710
5761 5760 5758 5756 5755 5754 5752 5750 5748 5746 5745 5743 5742 5741 5741 5740 5738 5735 5732 5732 5731 5727 5725 5724 5722 5722 5720 5718 5717 5715 5714 5712 5710 5709 5707 5705 5703 5702 5700 5699 5697 5696 5694 5693 5691 5690 5689 5688 5687 5686 5685 5685 5684 5684 5683 5683 5682 5682 5681 5682 5681 5681 5680 5680 5680 5679 5679 5679 5679 5679 5679 5679 5680 5681 5682 5682 5683 5684 5685 5686 5686 5688 5689 5690 5691 5691 5692 5693 5694 5695 5696 5697 5699 5700 5701 5702 5703
5759 5757 5756 5754 5753 5751 5749 5747 5745 5744 5743 5741 5740 5738 5738 5737 5734 5732 5729 5729 5727 5724 5723 5720 5719 5717 5715 5714 5712 5710 5708 5707 5705 5703 5702 5700 5698 5697 5695 5693 5692 5691 5689 5688 5686 5685 5684 5682 5682 5681 5680 5679 5678 5677 5677 5676 5675 5675 5675 5675 5675 5675 5674 5674 5674 5674 5673 5673 5672 5672 5672 5672 5673 5674 5675 5676 5676 5677 5678 5679 5680 5681 5682 5683 5684 5684 5685 5686 5687 5688 5689 5690 5691 5693 5695 5696 5696
5757 5755 5754 5752 5750 5748 5746 5744 5743 5742 5740 5739 5737 5735 5734 5733 5730 5729 5726 5725 5724 5722 5720 5717 5716 5714 5712 5710 5708 5706 5704 5702 5700 5698 5696 5694 5693 5691 5690 5688 5687 5685 5684 5682 5681 5679 5678 5677 5676 5675 5674 5674 5672 5671 5671 5670 5669 5669 5668 5668 5668 5668 5667 5667 5668 5668 5667 5667 5666 5666 5666 5666 5666 5667 5668 5669 5669 5670 5671 5671 5672 5674 5675 5676 5676 5677 5678 5679 5680 5681 5682 5683 5684 5685 5688 5688 5689
5755 5754 5752 5750 5748 5746 5744 5742 5741 5740 5738 5736 5734 5732 5731 5729 5727 5725 5723 5721 5719 5718 5716 5714 5712 5710 5708 5706 5704 5702 5700 5698 5695 5693 5691 5689 5687 5686 5684 5683 5681 5680 5678 5676 5675 5674 5672 5671 5670 5669 5668 5667 5666 5665 5665 5664 5663 5663 5661 5661 5660 5660 5660 5660 5660 5660 5660 5660 5659 5659 5660 5660 5660 5660 5662 5662 5661 5662 5664 5664 5665 5666 5668 5668 5669 5670 5670 5671 5672 5673 5675 5675 5676 5678 5680 5681 5682
5753 5752 5750 5748 5746 5744 5742 5740 5739 5737 5735 5733 5731 5729 5727 5725 5723 5721 5719 5717 5715 5713 5712 5709 5707 5705 5703 5701 5700 5698 5695 5693 5691 5688 5686 5684 5682 5680 5678 5677 5675 5674 5672 5671 5669 5667 5666 5664 5663 5662 5661 5661 5660 5659 5658 5657 5657 5656 5655 5654 5654 5653 5653 5652 5652 5652 5651 5651 5651 5652 5652 5652 5653 5653 5654 5655 5654 5655 5656 5657 5657 5658 5660 5660 5660 5661 5662 5664 5664 5666 5667 5668 5669 5670 5672 5674 5674
5752 5750 5749 5747 5744 5742 5739 5738 5736 5734 5732 5730 5728 5726 5724 5722 5719 5717 5715 5713 5710 5708 5706 5704 5702 5700 5698 5696 5694 5692 5690 5688 5686 5684 5681 5679 5677 5674 5673 5671 5669 5667 5666 5664 5663 5662 5660 5658 5657 5655 5654 5654 5653 5652 5651 5651 5650 5649 5648 5647 5646 5646 5645 5645 5645 5645 5644 5643 5643 5644 5645 5645 5645 5646 5647 5648 5647 5647 5649 5649 5649 5650 5651 5652 5653 5653 5654 5656 5656 5657 5659 5660 5662 5662 5664 5666 5667
5750 5748 5746 5744 5742 5740 5737 5735 5733 5731 5729 5726 5724 5723 5721 5718 5715 5713 5711 5708 5706 5703 5701 5699 5697 5695 5693 5690 5688 5686 5684 5682 5680 5678 5676 5673 5671 5669 5667 5665 5663 5661 5660 5659 5657 5656 5654 5652 5650 5649 5648 5647 5646 5645 5644 5644 5643 5642 5641 5640 5639 5639 5638 5638 5637 5637 5636 5636 5636 5636 5637 5637 5637 5638 5639 5640 5639 5639 5641 5641 5641 5643 5643 5644 5645 5646 5646 5648 5648 5650 5651 5653 5654 5655 5656 5658 5659
5748 5746 5744 5742 5740 5737 5735 5732 5730 5728 5726 5723 5720 5719 5717 5714 5711 5709 5706 5704 5701 5699 5696 5694 5692 5689 5687 5685 5682 5680 5678 5676 5674 5672 5670 5667 5665 5662 5660 5659 5657 5656 5654 5653 5651 5650 5648 5647 5645 5643 5641 5640 5639 5638 5637 5637 5636 5635 5634 5633 5632 5631 5631 5630 5630 5630 5629 5628 5628 5629 5629 5629 5629 5629 5630 5631 5631 5631 5632 5633 5634 5634 5635 5637 5638 5638 5638 5640 5640 5642 5644 5645 5646 5648 5649 5650 5651
5746 5744 5742 5740 5738 5735 5733 5729 5727 5726 5723 5720 5718 5716 5714 5711 5707 5705 5702 5699 5697 5694 5692 5689 5686 5684 5681 5679 5677 5675 5672 5670 5668 5665 5663 5661 5659 5656 5654 5652 5651 5649 5648 5646 5645 5643 5642 5640 5639 5637 5635 5633 5632 5630 5630 5629 5628 5627 5626 5626 5625 5624 5623 5623 5622 5622 5622 5621 5621 5621 5621 5621 5621 5621 5622 5622 5623 5623 5624 5625 5626 5627 5628 5629 5630 5630 5630 5632 5633 5634 5636 5637 5638 5640 5641 5642 5643
5744 5742 5740 5737 5735 5733 5730 5727 5724 5722 5720 5717 5715 5713 5711 5707 5703 5701 5698 5694 5692 5689 5687 5684 5681 5678 5676 5673 5670 5668 5666 5663 5661 5659 5656 5654 5652 5650 5648 5646 5644 5642 5641 5639 5638 5637 5635 5634 5632 5631 5629 5627 5625 5624 5622 5621 5620 5619 5619 5618 5617 5616 5616 5615 5614 5614 5614 5614 5613 5613 5613 5613 5613 5613 5614 5614 5615 5615 5616 5617 5618 5619 5620 5621 5622 5622 5622 5624 5625 5627 5629 5629 5630 5632 5633 5635 5635
5742 5740 5737 5735 5733 5730 5727 5724 5721 5718 5715 5713 5711 5709 5708 5705 5700 5697 5694 5690 5687 5684 5682 5678 5676 5673 5670 5667 5665 5662 5659 5657 5654 5652 5650 5647 5645 5643 5642 5640 5638 5636 5634 5632 5631 5629 5628 5627 5625 5623 5622 5620 5618 5616 5615 5613 5612 5611 5611 5610 5609 5609 5608 5607 5607 5606 5606 5606 5605 5605 5605 5605 5605 5605 5606 5606 5607 5608 5608 5609 5610 5612 5613 5613 5614 5614 5615 5617 5618 5620 5622 5622 5623 5624 5625 5627 5628
5740 5737 5734 5732 5729 5727 5724 5722 5719 5716 5712 5709 5706 5703 5703 5701 5696 5693 5690 5687 5684 5681 5677 5674 5671 5668 5665 5662 5659 5656 5654 5651 5648 5646 5643 5641 5638 5636 5634 5632 5631 5629 5627 5626 5624 5622 5620 5619 5617 5616 5614 5612 5611 5609 5607 5605 5604 5603 5602 5601 5601 5601 5600 5599 5599 5598 5598 5598 5597 5597 5598 5598 5598 5597 5597 5598 5599 5600 5600 5601 5602 5604 5604 5605 5606 5607 5608 5609 5611 5612 5615 5616 5616 5618 5618 5620 5621
5737 5734 5731 5729 5726 5724 5722 5719 5716 5714 5710 5706 5703 5699 5698 5697 5693 5689 5687 5683 5680 5676 5673 5669 5666 5662 5659 5656 5653 5651 5648 5645 5642 5640 5637 5634 5631 5629 5627 5624 5622 5621 5619 5617 5616 5614 5612 5611 5609 5607 5605 5604 5602 5601 5599 5597 5595 5594 5593 5592 5591 5591 5591 5591 5590 5590 5589 5589 5589 5589 5589 5590 5590 5589 5589 5590 5591 5592 5593 5593 5595 5596 5596 5597 5598 5600 5600 5601 5603 5605 5608 5609 5609 5610 5611 5612 5614
5735 5732 5729 5726 5724 5722 5720 5718 5715 5712 5709 5705 5701 5697 5694 5693 5690 5686 5683 5679 5675 5671 5667 5664 5661 5657 5654 5651 5648 5645 5642 5640 5636 5633 5630 5627 5624 5622 5619 5616 5614 5611 5609 5607 5606 5604 5603 5601 5600 5598 5597 5595 5593 5592 5590 5588 5586 5585 5583 5582 5581 5581 5581 5581 5581 5580 5580 5580 5580 5581 5581 5581 5581 5581 5581 5581 5582 5584 5585 5585 5587 5587 5588 5589 5591 5592 5593 5594 5596 5598 5600 5602 5602 5603 5604 5604 5605
5732 5730 5727 5725 5722 5720 5717 5715 5712 5709 5706 5702 5699 5694 5690 5688 5685 5682 5678 5674 5670 5666 5662 5659 5655 5652 5648 5645 5642 5639 5635 5632 5629 5626 5623 5620 5617 5614 5611 5609 5606 5603 5600 5598 5596 5594 5592 5590 5589 5588 5586 5585 5583 5582 5580 5578 5576 5575 5574 5572 5571 5571 5571 5571 5571 5570 5570 5570 5570 5571 5571 5572 5572 5572 5572 5572 5573 5575 5576 5577 5578 5579 5580 5581 5582 5584 5585 5586 5588 5590 5592 5594 5594 5595 5596 5596 5597
5731 5728 5725 5722 5718 5715 5713 5710 5707 5705 5702 5699 5695 5691 5687 5684 5680 5677 5673 5669 5665 5661 5657 5653 5650 5646 5642 5639 5635 5631 5628 5625 5621 5618 5615 5612 5608 5605 5602 5600 5597 5594 5592 5589 5587 5584 5582 5580 5578 5576 5575 5573 5572 5570 5569 5568 5566 5564 5563 5562 5561 5561 5560 5560 5560 5560 5560 5560 5560 5561 5562 5562 5563 5563 5563 5563 5564 5566 5567 5568 5569 5570 5571 5573 5574 5575 5577 5578 5580 5583 5585 5586 5587 5587 5588 5589 5589
5728 5725 5721 5718 5714 5711 5708 5705 5703 5701 5698 5694 5691 5688 5683 5680 5676 5672 5667 5663 5659 5655 5651 5647 5644 5640 5636 5632 5628 5624 5620 5617 5613 5610 5606 5603 5599 5596 5593 5590 5587 5584 5581 5579 5577 5574 5572 5569 5567 5565 5563 5561 5559 5558 5557 5556 5555 5553 5552 5551 5550 5550 5550 5549 5549 5549 5550 5550 5550 5551 5551 5552 5553 5554 5554 5554 5554 5556 5558 5559 5560 5561 5562 5564 5566 5567 5568 5570 5571 5574 5577 5578 5578 5578 5579 5580 5581
5724 5721 5717 5714 5711 5708 5704 5701 5698 5696 5694 5690 5687 5683 5678 5674 5671 5666 5662 5657 5653 5649 5645 5641 5637 5633 5629 5624 5620 5616 5612 5608 5603 5600 5596 5593 5589 5586 5583 5579 5576 5573 5570 5567 5565 5563 5560 5558 5556 5553 5551 5549 5547 5545 5544 5543 5542 5541 5541 5540 5539 5538 5538 5539 5539 5539 5539 5539 5540 5541 5542 5542 5543 5544 5545 5545 5545 5546 5548 5550 5551 5552 5553 5555 5558 5558 5559 5561 5563 5565 5568 5569 5570 5570 5570 5572 5574
5721 5718 5714 5710 5707 5705 5701 5698 5694 5691 5689 5686 5682 5679 5674 5669 5665 5660 5655 5651 5647 5642 5638 5634 5629 5624 5620 5615 5611 5606 5602 5598 5594 5590 5586 5582 5578 5574 5571 5567 5564 5561 5558 5555 5552 5549 5547 5544 5542 5540 5538 5536 5534 5532 5530 5530 5529 5528 5528 5527 5526 5526 5526 5527 5527 5528 5528 5529 5529 5530 5531 5532 5533 5534 5535 5536 5537 5537 5538 5540 5541 5542 5544 5546 5549 5550 5551 5552 5554 5556 5558 5559 5561 5562 5563 5564 5566
5718 5714 5711 5708 5704 5702 5698 5694 5690 5686 5683 5680 5676 5673 5668 5664 5660 5655 5649 5644 5639 5635 5629 5625 5621 5615 5611 5606 5601 5597 5592 5588 5583 5578 5574 5570 5565 5562 5557 5554 5550 5547 5544 5541 5537 5535 5532 5530 5527 5525 5523 5521 5520 5518 5517 5516 5514 5514 5514 5514 5514 5514 5514 5514 5514 5516 5516 5517 5518 5519 5521 5522 5523 5524 5525 5526 5527 5528 5529 5530 5531 5533 5534 5537 5540 5542 5542 5543 5545 5547 5549 5551 5552 5554 5555 5556 5557
5714 5711 5708 5704 5700 5698 5695 5691 5685 5680 5676 5673 5670 5667 5663 5658 5655 5650 5644 5639 5633 5628 5622 5617 5612 5607 5601 5596 5592 5587 5582 5577 5573 5567 5563 5558 5553 5549 5545 5540 5537 5533 5530 5527 5523 5520 5517 5514 5512 5509 5507 5506 5504 5502 5502 5501 5500 5499 5499 5500 5500 5500 5501 5501 5501 5502 5503 5505 5507 5508 5510 5511 5513 5515 5516 5517 5518 5519 5520 5521 5522 5523 5525 5527 5531 5533 5533 5534 5536 5538 5540 5542 5543 5545 5546 5547 5549
5712 5708 5704 5701 5697 5692 5689 5686 5681 5675 5671 5667 5663 5662 5658 5652 5649 5645 5638 5633 5627 5620 5615 5610 5605 5599 5593 5588 5583 5578 5572 5567 5562 5557 5552 5547 5542 5537 5532 5528 5524 5520 5516 5513 5509 5505 5501 5497 5494 5492 5490 5488 5487 5486 5485 5486 5485 5485 5485 5485 5486 5487 5488 5489 5489 5489 5490 5491 5494 5496 5497 5500 5502 5504 5506 5507 5509 5510 5511 5512 5512 5513 5515 5518 5521 5523 5524 5526 5527 5529 5531 5532 5533 5536 5537 5539 5541
5708 5705 5701 5697 5693 5688 5683 5680 5677 5672 5667 5662 5656 5653 5652 5646 5641 5639 5632 5624 5618 5612 5606 5602 5597 5592 5586 5579 5573 5567 5562 5555 5550 5545 5540 5534 5529 5524 5520 5514 5509 5505 5501 5497 5493 5489 5484 5480 5476 5472 5470 5469 5468 5468 5468 5469 5469 5469 5470 5470 5472 5473 5474 5475 5476 5477 5476 5478 5482 5484 5485 5487 5490 5493 5495 5496 5499 5500 5502 5503 5503 5504 5506 5508 5511 5514 5515 5516 5518 5520 5522 5523 5524 5527 5528 5529 5531
5705 5702 5697 5693 5689 5685 5680 5675 5671 5667 5661 5656 5649 5643 5644 5640 5632 5628 5624 5616 5609 5604 5598 5593 5587 5582 5576 5569 5563 5557 5550 5544 5537 5532 5527 5521 5516 5510 5505 5500 5494 5488 5484 5479 5474 5470 5465 5461 5457 5454 5451 5449 5448 5448 5449 5450 5451 5451 5452 5453 5456 5457 5459 5461 5462 5463 5463 5465 5468 5470 5472 5475 5478 5480 5483 5485 5488 5490 5492 5493 5493 5495 5496 5498 5501 5504 5505 5507 5509 5511 5512 5514 5516 5517 5518 5519 5523
5702 5697 5693 5689 5684 5680 5676 5671 5666 5662 5657 5651 5645 5636 5633 5633 5624 5616 5614 5607 5600 5596 5589 5584 5578 5572 5566 5559 5552 5545 5538 5532 5526 5520 5514 5508 5502 5495 5490 5484 5478 5472 5466 5461 5455 5450 5446 5442 5438 5435 5432 5431 5430 5429 5428 5429 5430 5431 5433 5435 5438 5440 5442 5444 5447 5448 5450 5452 5454 5457 5459 5462 5465 5467 5470 5473 5475 5478 5481 5482 5483 5485 5486 5488 5490 5493 5495 5497 5499 5501 5503 5505 5507 5507 5507 5510 5514
5698 5693 5689 5684 5680 5675 5671 5668 5663 5659 5654 5647 5639 5630 5623 5624 5618 5608 5605 5599 5591 5587 5580 5574 5569 5562 5556 5549 5542 5534 5527 5519 5513 5507 5501 5494 5487 5481 5475 5469 5463 5456 5449 5443 5437 5431 5427 5423 5419 5416 5413 5412 5411 5410 5410 5410 5410 5411 5413 5416 5418 5422 5424 5427 5430 5432 5435 5438 5440 5443 5446 5449 5452 5454 5457 5460 5463 5466 5468 5471 5473 5474 5476 5478 5480 5483 5486 5488 5489 5492 5493 5494 5496 5497 5498 5501 5504
5694 5690 5685 5681 5676 5672 5667 5663 5659 5654 5650 5642 5634 5625 5614 5615 5614 5602 5595 5590 5582 5576 5571 5564 5558 5552 5545 5538 5530 5522 5513 5505 5498 5491 5485 5479 5472 5466 5460 5453 5446 5440 5432 5425 5419 5414 5409 5405 5402 5399 5396 5394 5393 5392 5393 5393 5394 5393 5394 5396 5398 5403 5406 5409 5413 5416 5419 5423 5426 5429 5431 5435 5438 5441 5444 5447 5451 5454 5456 5459 5461 5463 5466 5468 5470 5473 5476 5478 5479 5481 5484 5485 5486 5487 5489 5491 5493
5690 5685 5682 5677 5671 5667 5662 5657 5652 5647 5645 5639 5631 5624 5610 5606 5609 5598 5586 5580 5572 5565 5559 5553 5546 5539 5532 5524 5515 5507 5498 5490 5484 5477 5470 5463 5456 5449 5443 5436 5429 5423 5416 5409 5403 5399 5395 5391 5388 5385 5383 5380 5378 5377 5377 5377 5378 5377 5377 5379 5380 5384 5388 5390 5395 5399 5402 5406 5411 5415 5417 5420 5424 5427 5430 5434 5438 5441 5443 5447 5450 5452 5455 5457 5460 5464 5466 5468 5469 5471 5473 5476 5477 5478 5479 5481 5484
5685 5680 5676 5672 5665 5661 5655 5650 5646 5643 5642 5638 5629 5622 5609 5599 5598 5593 5582 5573 5565 5557 5549 5543 5536 5526 5518 5510 5501 5493 5484 5476 5469 5462 5454 5447 5440 5433 5426 5420 5413 5407 5402 5396 5391 5387 5384 5381 5379 5376 5374 5371 5368 5367 5366 5366 5365 5364 5364 5364 5364 5366 5370 5373 5377 5382 5385 5389 5394 5399 5402 5406 5409 5412 5416 5419 5424 5428 5431 5435 5438 5441 5443 5446 5450 5453 5455 5458 5459 5461 5463 5465 5467 5469 5469 5471 5475
5680 5674 5669 5665 5661 5657 5651 5645 5642 5638 5635 5633 5625 5617 5608 5597 5591 5585 5579 5570 5560 5553 5544 5534 5526 5516 5507 5498 5489 5479 5469 5461 5453 5445 5439 5432 5425 5419 5413 5407 5400 5395 5391 5386 5382 5380 5377 5375 5372 5370 5368 5365 5362 5360 5359 5358 5356 5355 5354 5353 5352 5353 5354 5357 5360 5365 5369 5372 5377 5382 5387 5390 5394 5398 5402 5406 5409 5413 5417 5421 5425 5429 5432 5435 5438 5441 5444 5447 5449 5450 5452 5455 5458 5460 5460 5461 5465
5674 5669 5663 5658 5653 5651 5646 5640 5635 5631 5629 5626 5618 5609 5603 5597 5589 5580 5573 5564 5554 5546 5535 5524 5515 5505 5496 5488 5478 5467 5456 5447 5440 5432 5426 5419 5412 5407 5401 5395 5390 5385 5382 5378 5376 5373 5372 5370 5366 5364 5362 5359 5356 5355 5353 5352 5350 5348 5347 5346 5345 5344 5344 5344 5346 5350 5354 5357 5361 5366 5371 5375 5380 5384 5388 5393 5396 5399 5403 5408 5412 5416 5420 5423 5426 5429 5432 5435 5437 5439 5441 5444 5447 5450 5451 5451 5454
5668 5662 5656 5651 5645 5640 5635 5629 5623 5619 5618 5617 5611 5601 5592 5587 5582 5573 5564 5556 5545 5536 5525 5513 5504 5495 5486 5478 5468 5457 5446 5437 5430 5422 5415 5408 5401 5395 5390 5385 5381 5378 5375 5372 5370 5367 5365 5364 5361 5358 5356 5353 5351 5349 5348 5346 5344 5343 5341 5339 5338 5338 5337 5337 5337 5338 5341 5343 5347 5351 5356 5361 5366 5370 5374 5379 5383 5386 5390 5395 5400 5404 5408 5411 5414 5417 5420 5423 5426 5428 5431 5433 5436 5439 5441 5442 5444
5663 5657 5651 5646 5640 5634 5627 5621 5614 5606 5603 5603 5600 5592 5582 5575 5570 5563 5554 5546 5535 5525 5516 5504 5494 5486 5477 5467 5457 5447 5436 5427 5420 5412 5405 5398 5391 5386 5381 5377 5374 5372 5369 5367 5364 5361 5359 5357 5355 5352 5350 5348 5346 5344 5342 5340 5339 5337 5336 5334 5333 5332 5331 5331 5331 5331 5332 5333 5335 5338 5343 5347 5352 5357 5361 5365 5370 5374 5379 5384 5388 5392 5395 5399 5402 5405 5408 5411 5414 5416 5419 5422 5425 5428 5430 5432 5435
5659 5654 5648 5643 5637 5631 5625 5619 5611 5600 5593 5592 5589 5585 5579 5571 5563 5553 5544 5536 5525 5512 5502 5491 5481 5474 5465 5453 5441 5432 5423 5416 5409 5401 5394 5389 5384 5379 5374 5370 5368 5366 5364 5362 5359 5356 5353 5351 5349 5346 5344 5342 5340 5338 5336 5335 5333 5332 5330 5329 5328 5326 5325 5325 5325 5325 5325 5326 5327 5329 5332 5335 5339 5344 5349 5353 5357 5362 5366 5371 5376 5380 5383 5386 5389 5393 5395 5398 5401 5404 5407 5411 5414 5417 5419 5422 5425
5656 5649 5644 5638 5632 5626 5619 5613 5608 5598 5588 5584 5580 5575 5571 5564 5554 5542 5531 5523 5513 5501 5488 5476 5466 5458 5450 5440 5428 5418 5410 5403 5398 5390 5384 5380 5376 5372 5368 5365 5362 5360 5358 5356 5354 5351 5348 5346 5343 5340 5338 5336 5334 5333 5331 5329 5328 5327 5326 5324 5323 5322 5320 5319 5319 5319 5319 5319 5320 5321 5323 5325 5327 5331 5335 5340 5344 5349 5353 5358 5363 5368 5371 5374 5377 5380 5383 5386 5388 5391 5395 5399 5402 5405 5407 5411 5414
5653 5646 5641 5634 5627 5620 5612 5603 5597 5590 5580 5575 5571 5564 5557 5550 5540 5530 5521 5511 5500 5489 5476 5464 5456 5446 5437 5427 5416 5407 5399 5393 5388 5382 5376 5372 5369 5366 5363 5360 5358 5355 5352 5350 5347 5345 5342 5340 5338 5335 5333 5331 5329 5327 5325 5324 5322 5321 5321 5320 5318 5317 5316 5315 5314 5314 5313 5313 5314 5315 5315 5317 5319 5321 5323 5327 5331 5336 5340 5345 5350 5355 5358 5362 5365 5368 5370 5373 5376 5379 5383 5387 5390 5392 5394 5399 5403
5649 5643 5636 5629 5621 5614 5609 5600 5590 5581 5570 5562 5560 5558 5552 5543 5530 5518 5510 5500 5487 5476 5466 5454 5444 5436 5425 5415 5406 5397 5390 5384 5379 5374 5369 5365 5363 5361 5358 5356 5354 5351 5348 5345 5342 5339 5337 5335 5333 5330 5328 5325 5323 5322 5320 5318 5317 5316 5316 5315 5314 5312 5311 5310 5310 5309 5309 5309 5309 5309 5310 5311 5312 5313 5315 5317 5320 5324 5328 5332 5337 5341 5345 5348 5352 5355 5358 5361 5364 5368 5372 5375 5378 5380 5382 5387 5391
5646 5638 5631 5624 5617 5610 5606 5600 5590 5579 5567 5553 5545 5546 5546 5536 5522 5510 5500 5489 5477 5465 5455 5445 5434 5425 5416 5406 5397 5389 5381 5375 5370 5365 5361 5359 5358 5356 5353 5351 5349 5346 5343 5340 5337 5334 5332 5329 5327 5325 5323 5321 5318 5316 5315 5313 5312 5311 5311 5310 5309 5307 5306 5306 5305 5305 5305 5305 5305 5305 5305 5306 5306 5307 5308 5310 5312 5314 5318 5321 5324 5329 5333 5336 5339 5342 5346 5349 5352 5357 5361 5363 5366 5368 5370 5375 5379
5641 5635 5627 5619 5614 5606 5600 5597 5590 5580 5568 5552 5535 5533 5538 5530 5513 5503 5492 5482 5472 5458 5445 5436 5425 5416 5407 5398 5388 5380 5373 5367 5362 5358 5355 5353 5352 5351 5349 5347 5344 5341 5338 5335 5332 5330 5327 5324 5321 5319 5317 5315 5313 5311 5310 5308 5307 5306 5306 5305 5304 5303 5302 5301 5301 5301 5300 5300 5301 5301 5301 5301 5301 5302 5302 5303 5305 5306 5309 5311 5314 5317 5321 5325 5328 5330 5334 5337 5341 5346 5349 5352 5356 5357 5360 5365 5368
5638 5632 5625 5616 5609 5601 5593 5588 5586 5580 5569 5555 5535 5526 5530 5522 5503 5494 5487 5475 5465 5452 5438 5427 5416 5406 5397 5389 5381 5372 5365 5360 5356 5352 5349 5348 5347 5345 5344 5343 5340 5337 5334 5331 5328 5325 5322 5319 5316 5314 5312 5309 5308 5306 5305 5304 5302 5302 5301 5300 5300 5299 5298 5297 5296 5296 5296 5296 5296 5296 5296 5297 5297 5297 5297 5298 5299 5300 5301 5303 5305 5308 5311 5315 5318 5321 5323 5325 5329 5334 5338 5341 5345 5347 5350 5355 5358